owner,sensor,date,latitude,longitude,vertical_datum,wind_speed,wind_to_direction,wind_speed_of_gust,qcFlag 
ADCP,ioos:station:wmo:42374:1,2011-05-01T00:00:00Z,28.8660,-88.0560,1.0,7.8,129.0,99.0,'11111222,11111222,11144222' 
ADCP,ioos:station:wmo:42374:1,2011-05-01T00:20:00Z,28.8660,-88.0560,1.0,8.6,130.0,99.0,'11111222,11111222,11144222' 
ADCP,ioos:station:wmo:42374:1,2011-05-01T00:40:00Z,28.8660,-88.0560,1.0,8.8,129.0,99.0,'11111222,11111222,11144222' 
ADCP,ioos:station:wmo:42374:1,2011-05-01T01:00:00Z,28.8660,-88.0560,1.0,9.2,130.0,99.0,'11111222,11111222,11144222' 
ADCP,ioos:station:wmo:42374:1,2011-05-01T01:20:00Z,28.8660,-88.0560,1.0,8.8,129.0,99.0,'11111222,11111222,11144222' 
ADCP,ioos:station:wmo:42374:1,2011-05-01T01:40:00Z,28.8660,-88.0560,1.0,9.7,131.0,99.0,'11111222,11111222,11144222' 
ADCP,ioos:station:wmo:42374:1,2011-05-01T02:00:00Z,28.8660,-88.0560,1.0,9.8,133.0,99.0,'11111222,11111222,11144222' 
ADCP,ioos:station:wmo:42374:1,2011-05-01T02:20:00Z,28.8660,-88.0560,1.0,9.4,134.0,99.0,'11111222,11111222,11144222' 
ADCP,ioos:station:wmo:42374:1,2011-05-01T02:40:00Z,28.8660,-88.0560,1.0,9.4,133.0,99.0,'11111222,11111222,11144222' 
ADCP,ioos:station:wmo:42374:1,2011-05-01T03:00:00Z,28.8660,-88.0560,1.0,10.0,133.0,99.0,'11111222,11111222,11144222' 
ADCP,ioos:station:wmo:42374:1,2011-05-01T03:20:00Z,28.8660,-88.0560,1.0,10.3,136.0,99.0,'11111222,11111222,11144222' 
ADCP,ioos:station:wmo:42374:1,2011-05-01T03:40:00Z,28.8660,-88.0560,1.0,10.3,135.0,99.0,'11111222,11111222,11144222' 
ADCP,ioos:station:wmo:42374:1,2011-05-01T04:00:00Z,28.8660,-88.0560,1.0,11.2,134.0,99.0,'11111222,11111222,11144222' 
ADCP,ioos:station:wmo:42374:1,2011-05-01T04:20:00Z,28.8660,-88.0560,1.0,11.2,134.0,99.0,'11111222,11111222,11144222' 
ADCP,ioos:station:wmo:42374:1,2011-05-01T04:40:00Z,28.8660,-88.0560,1.0,10.8,136.0,99.0,'11111222,11111222,11144222' 
ADCP,ioos:station:wmo:42374:1,2011-05-01T05:00:00Z,28.8660,-88.0560,1.0,11.1,135.0,99.0,'11111222,11111222,11144222' 
ADCP,ioos:station:wmo:42374:1,2011-05-01T05:20:00Z,28.8660,-88.0560,1.0,11.3,138.0,99.0,'11111222,11111222,11144222' 
ADCP,ioos:station:wmo:42374:1,2011-05-01T05:40:00Z,28.8660,-88.0560,1.0,10.9,140.0,99.0,'11111222,11111222,11144222' 
ADCP,ioos:station:wmo:42374:1,2011-05-01T06:00:00Z,28.8660,-88.0560,1.0,10.7,141.0,99.0,'11111222,11111222,11144222' 
ADCP,ioos:station:wmo:42374:1,2011-05-01T06:20:00Z,28.8660,-88.0560,1.0,10.7,144.0,99.0,'11111222,11111222,11144222' 
ADCP,ioos:station:wmo:42374:1,2011-05-01T06:40:00Z,28.8660,-88.0560,1.0,11.0,147.0,99.0,'11111222,11111222,11144222' 
ADCP,ioos:station:wmo:42374:1,2011-05-01T07:00:00Z,28.8660,-88.0560,1.0,11.1,148.0,99.0,'11111222,11111222,11144222' 
ADCP,ioos:station:wmo:42374:1,2011-05-01T07:20:00Z,28.8660,-88.0560,1.0,10.9,150.0,99.0,'11111222,11111222,11144222' 
ADCP,ioos:station:wmo:42374:1,2011-05-01T07:40:00Z,28.8660,-88.0560,1.0,11.5,151.0,99.0,'11111222,11111222,11144222' 
ADCP,ioos:station:wmo:42374:1,2011-05-01T08:00:00Z,28.8660,-88.0560,1.0,11.1,153.0,99.0,'11111222,11111222,11144222' 
ADCP,ioos:station:wmo:42374:1,2011-05-01T08:20:00Z,28.8660,-88.0560,1.0,11.4,152.0,99.0,'11111222,11111222,11144222' 
ADCP,ioos:station:wmo:42374:1,2011-05-01T08:40:00Z,28.8660,-88.0560,1.0,10.6,154.0,99.0,'11111222,11111222,11144222' 
ADCP,ioos:station:wmo:42374:1,2011-05-01T09:00:00Z,28.8660,-88.0560,1.0,10.4,158.0,99.0,'11111222,11111222,11144222' 
ADCP,ioos:station:wmo:42374:1,2011-05-01T09:20:00Z,28.8660,-88.0560,1.0,11.3,156.0,99.0,'11111222,11111222,11144222' 
ADCP,ioos:station:wmo:42374:1,2011-05-01T09:40:00Z,28.8660,-88.0560,1.0,11.3,157.0,99.0,'11111222,11111222,11144222' 
ADCP,ioos:station:wmo:42374:1,2011-05-01T10:00:00Z,28.8660,-88.0560,1.0,11.3,161.0,99.0,'11111222,11111222,11144222' 
ADCP,ioos:station:wmo:42374:1,2011-05-01T10:20:00Z,28.8660,-88.0560,1.0,11.5,156.0,99.0,'11111222,11111222,11144222' 
ADCP,ioos:station:wmo:42374:1,2011-05-01T10:40:00Z,28.8660,-88.0560,1.0,11.5,154.0,99.0,'11111222,11111222,11144222' 
ADCP,ioos:station:wmo:42374:1,2011-05-01T11:00:00Z,28.8660,-88.0560,1.0,11.3,158.0,99.0,'11111222,11111222,11144222' 
ADCP,ioos:station:wmo:42374:1,2011-05-01T11:20:00Z,28.8660,-88.0560,1.0,11.3,156.0,99.0,'11111222,11111222,11144222' 
ADCP,ioos:station:wmo:42374:1,2011-05-01T11:40:00Z,28.8660,-88.0560,1.0,11.6,158.0,99.0,'11111222,11111222,11144222' 
ADCP,ioos:station:wmo:42374:1,2011-05-01T12:00:00Z,28.8660,-88.0560,1.0,11.2,161.0,99.0,'11111222,11111222,11144222' 
ADCP,ioos:station:wmo:42374:1,2011-05-01T12:20:00Z,28.8660,-88.0560,1.0,11.1,168.0,99.0,'11111222,11111222,11144222' 
ADCP,ioos:station:wmo:42374:1,2011-05-01T12:40:00Z,28.8660,-88.0560,1.0,9.9,169.0,99.0,'11111222,11111222,11144222' 
ADCP,ioos:station:wmo:42374:1,2011-05-01T13:00:00Z,28.8660,-88.0560,1.0,9.7,157.0,99.0,'11111222,11111222,11144222' 
ADCP,ioos:station:wmo:42374:1,2011-05-01T13:20:00Z,28.8660,-88.0560,1.0,10.4,154.0,99.0,'11111222,11111222,11144222' 
ADCP,ioos:station:wmo:42374:1,2011-05-01T13:40:00Z,28.8660,-88.0560,1.0,11.1,146.0,99.0,'11111222,11111222,11144222' 
ADCP,ioos:station:wmo:42374:1,2011-05-01T14:00:00Z,28.8660,-88.0560,1.0,10.4,146.0,99.0,'11111222,11111222,11144222' 
ADCP,ioos:station:wmo:42374:1,2011-05-01T14:20:00Z,28.8660,-88.0560,1.0,9.9,146.0,99.0,'11111222,11111222,11144222' 
ADCP,ioos:station:wmo:42374:1,2011-05-01T14:40:00Z,28.8660,-88.0560,1.0,9.2,144.0,99.0,'11111222,11111222,11144222' 
ADCP,ioos:station:wmo:42374:1,2011-05-01T15:00:00Z,28.8660,-88.0560,1.0,9.1,143.0,99.0,'11111222,11111222,11144222' 
ADCP,ioos:station:wmo:42374:1,2011-05-01T15:20:00Z,28.8660,-88.0560,1.0,8.9,142.0,99.0,'11111222,11111222,11144222' 
ADCP,ioos:station:wmo:42374:1,2011-05-01T15:40:00Z,28.8660,-88.0560,1.0,8.8,143.0,99.0,'11111222,11111222,11144222' 
ADCP,ioos:station:wmo:42374:1,2011-05-01T16:00:00Z,28.8660,-88.0560,1.0,8.6,144.0,99.0,'11111222,11111222,11144222' 
ADCP,ioos:station:wmo:42374:1,2011-05-01T16:20:00Z,28.8660,-88.0560,1.0,7.4,141.0,99.0,'11111222,11111222,11144222' 
ADCP,ioos:station:wmo:42374:1,2011-05-01T16:40:00Z,28.8660,-88.0560,1.0,6.6,141.0,99.0,'11111222,11111222,11144222' 
ADCP,ioos:station:wmo:42374:1,2011-05-01T17:00:00Z,28.8660,-88.0560,1.0,5.8,140.0,99.0,'11111222,11111222,11144222' 
ADCP,ioos:station:wmo:42374:1,2011-05-01T17:20:00Z,28.8660,-88.0560,1.0,5.4,135.0,99.0,'11111222,11111222,11144222' 
ADCP,ioos:station:wmo:42374:1,2011-05-01T17:40:00Z,28.8660,-88.0560,1.0,5.5,131.0,99.0,'11111222,11111222,11144222' 
ADCP,ioos:station:wmo:42374:1,2011-05-01T18:00:00Z,28.8660,-88.0560,1.0,5.6,130.0,99.0,'11111222,11111222,11144222' 
ADCP,ioos:station:wmo:42374:1,2011-05-01T18:20:00Z,28.8660,-88.0560,1.0,5.8,126.0,99.0,'11111222,11111222,11144222' 
ADCP,ioos:station:wmo:42374:1,2011-05-01T18:40:00Z,28.8660,-88.0560,1.0,5.4,122.0,99.0,'11111222,11111222,11144222' 
ADCP,ioos:station:wmo:42374:1,2011-05-01T19:00:00Z,28.8660,-88.0560,1.0,5.8,117.0,99.0,'11111222,11111222,11144222' 
ADCP,ioos:station:wmo:42374:1,2011-05-01T19:20:00Z,28.8660,-88.0560,1.0,6.2,126.0,99.0,'11111222,11111222,11144222' 
ADCP,ioos:station:wmo:42374:1,2011-05-01T19:40:00Z,28.8660,-88.0560,1.0,6.4,132.0,99.0,'11111222,11111222,11144222' 
ADCP,ioos:station:wmo:42374:1,2011-05-01T20:00:00Z,28.8660,-88.0560,1.0,5.9,130.0,99.0,'11111222,11111222,11144222' 
ADCP,ioos:station:wmo:42374:1,2011-05-01T20:20:00Z,28.8660,-88.0560,1.0,6.6,129.0,99.0,'11111222,11111222,11144222' 
ADCP,ioos:station:wmo:42374:1,2011-05-01T20:40:00Z,28.8660,-88.0560,1.0,7.3,134.0,99.0,'11111222,11111222,11144222' 
ADCP,ioos:station:wmo:42374:1,2011-05-01T21:00:00Z,28.8660,-88.0560,1.0,7.3,132.0,99.0,'11111222,11111222,11144222' 
ADCP,ioos:station:wmo:42374:1,2011-05-01T21:20:00Z,28.8660,-88.0560,1.0,6.7,127.0,99.0,'11111222,11111222,11144222' 
ADCP,ioos:station:wmo:42374:1,2011-05-01T21:40:00Z,28.8660,-88.0560,1.0,7.2,128.0,99.0,'11111222,11111222,11144222' 
ADCP,ioos:station:wmo:42374:1,2011-05-01T22:00:00Z,28.8660,-88.0560,1.0,7.5,127.0,99.0,'11111222,11111222,11144222' 
ADCP,ioos:station:wmo:42374:1,2011-05-01T22:20:00Z,28.8660,-88.0560,1.0,8.4,131.0,99.0,'11111222,11111222,11144222' 
ADCP,ioos:station:wmo:42374:1,2011-05-01T22:40:00Z,28.8660,-88.0560,1.0,9.2,131.0,99.0,'11111222,11111222,11144222' 
ADCP,ioos:station:wmo:42374:1,2011-05-01T23:20:00Z,28.8660,-88.0560,1.0,9.8,129.0,99.0,'11111222,11111222,11144222' 
ADCP,ioos:station:wmo:42374:1,2011-05-01T23:40:00Z,28.8660,-88.0560,1.0,9.8,129.0,99.0,'11111222,11111222,11144222' 
ADCP,ioos:station:wmo:42374:1,2011-05-02T00:00:00Z,28.8660,-88.0560,1.0,10.2,128.0,99.0,'11111222,11111222,11144222' 
ADCP,ioos:station:wmo:42374:1,2011-05-02T00:20:00Z,28.8660,-88.0560,1.0,10.7,128.0,99.0,'11111222,11111222,11144222' 
ADCP,ioos:station:wmo:42374:1,2011-05-02T00:40:00Z,28.8660,-88.0560,1.0,10.9,126.0,99.0,'11111222,11111222,11144222' 
ADCP,ioos:station:wmo:42374:1,2011-05-02T01:00:00Z,28.8660,-88.0560,1.0,11.6,128.0,99.0,'11111222,11111222,11144222' 
ADCP,ioos:station:wmo:42374:1,2011-05-02T01:20:00Z,28.8660,-88.0560,1.0,11.4,130.0,99.0,'11111222,11111222,11144222' 
ADCP,ioos:station:wmo:42374:1,2011-05-02T01:40:00Z,28.8660,-88.0560,1.0,11.6,128.0,99.0,'11111222,11111222,11144222' 
ADCP,ioos:station:wmo:42374:1,2011-05-02T02:00:00Z,28.8660,-88.0560,1.0,12.6,130.0,99.0,'11111222,11111222,11144222' 
ADCP,ioos:station:wmo:42374:1,2011-05-02T02:20:00Z,28.8660,-88.0560,1.0,12.4,132.0,99.0,'11111222,11111222,11144222' 
ADCP,ioos:station:wmo:42374:1,2011-05-02T02:40:00Z,28.8660,-88.0560,1.0,12.2,133.0,99.0,'11111222,11111222,11144222' 
ADCP,ioos:station:wmo:42374:1,2011-05-02T03:00:00Z,28.8660,-88.0560,1.0,12.5,132.0,99.0,'11111222,11111222,11144222' 
ADCP,ioos:station:wmo:42374:1,2011-05-02T03:20:00Z,28.8660,-88.0560,1.0,12.4,133.0,99.0,'11111222,11111222,11144222' 
ADCP,ioos:station:wmo:42374:1,2011-05-02T03:40:00Z,28.8660,-88.0560,1.0,12.8,134.0,99.0,'11111222,11111222,11144222' 
ADCP,ioos:station:wmo:42374:1,2011-05-02T04:00:00Z,28.8660,-88.0560,1.0,13.3,137.0,99.0,'11111222,11111222,11144222' 
ADCP,ioos:station:wmo:42374:1,2011-05-02T04:20:00Z,28.8660,-88.0560,1.0,13.1,138.0,99.0,'11111222,11111222,11144222' 
ADCP,ioos:station:wmo:42374:1,2011-05-02T04:40:00Z,28.8660,-88.0560,1.0,13.2,140.0,99.0,'11111222,11111222,11144222' 
ADCP,ioos:station:wmo:42374:1,2011-05-02T05:00:00Z,28.8660,-88.0560,1.0,13.4,139.0,99.0,'11111222,11111222,11144222' 
ADCP,ioos:station:wmo:42374:1,2011-05-02T05:20:00Z,28.8660,-88.0560,1.0,13.4,139.0,99.0,'11111222,11111222,11144222' 
ADCP,ioos:station:wmo:42374:1,2011-05-02T05:40:00Z,28.8660,-88.0560,1.0,13.4,139.0,99.0,'11111222,11111222,11144222' 
ADCP,ioos:station:wmo:42374:1,2011-05-02T06:00:00Z,28.8660,-88.0560,1.0,13.4,139.0,99.0,'11111222,11111222,11144222' 
ADCP,ioos:station:wmo:42374:1,2011-05-02T06:20:00Z,28.8660,-88.0560,1.0,13.4,139.0,99.0,'11111222,11111222,11144222' 
ADCP,ioos:station:wmo:42374:1,2011-05-02T06:40:00Z,28.8660,-88.0560,1.0,13.4,139.0,99.0,'11111222,11111222,11144222' 
ADCP,ioos:station:wmo:42374:1,2011-05-02T07:00:00Z,28.8660,-88.0560,1.0,13.0,147.0,99.0,'11111222,11111222,11144222' 
ADCP,ioos:station:wmo:42374:1,2011-05-02T07:20:00Z,28.8660,-88.0560,1.0,13.4,148.0,99.0,'11111222,11111222,11144222' 
ADCP,ioos:station:wmo:42374:1,2011-05-02T07:40:00Z,28.8660,-88.0560,1.0,13.4,148.0,99.0,'11111222,11111222,11144222' 
ADCP,ioos:station:wmo:42374:1,2011-05-02T08:00:00Z,28.8660,-88.0560,1.0,13.3,148.0,99.0,'11111222,11111222,11144222' 
ADCP,ioos:station:wmo:42374:1,2011-05-02T08:20:00Z,28.8660,-88.0560,1.0,12.4,149.0,99.0,'11111222,11111222,11144222' 
ADCP,ioos:station:wmo:42374:1,2011-05-02T08:40:00Z,28.8660,-88.0560,1.0,12.1,152.0,99.0,'11111222,11111222,11144222' 
ADCP,ioos:station:wmo:42374:1,2011-05-02T09:00:00Z,28.8660,-88.0560,1.0,11.6,151.0,99.0,'11111222,11111222,11144222' 
ADCP,ioos:station:wmo:42374:1,2011-05-02T09:20:00Z,28.8660,-88.0560,1.0,11.3,149.0,99.0,'11111222,11111222,11144222' 
ADCP,ioos:station:wmo:42374:1,2011-05-02T09:40:00Z,28.8660,-88.0560,1.0,10.4,148.0,99.0,'11111222,11111222,11144222' 
ADCP,ioos:station:wmo:42374:1,2011-05-02T10:00:00Z,28.8660,-88.0560,1.0,10.2,146.0,99.0,'11111222,11111222,11144222' 
ADCP,ioos:station:wmo:42374:1,2011-05-02T10:20:00Z,28.8660,-88.0560,1.0,9.8,145.0,99.0,'11111222,11111222,11144222' 
ADCP,ioos:station:wmo:42374:1,2011-05-02T10:40:00Z,28.8660,-88.0560,1.0,8.8,145.0,99.0,'11111222,11111222,11144222' 
ADCP,ioos:station:wmo:42374:1,2011-05-02T11:00:00Z,28.8660,-88.0560,1.0,8.0,144.0,99.0,'11111222,11111222,11144222' 
ADCP,ioos:station:wmo:42374:1,2011-05-02T11:20:00Z,28.8660,-88.0560,1.0,7.7,144.0,99.0,'11111222,11111222,11144222' 
ADCP,ioos:station:wmo:42374:1,2011-05-02T11:40:00Z,28.8660,-88.0560,1.0,7.1,146.0,99.0,'11111222,11111222,11144222' 
ADCP,ioos:station:wmo:42374:1,2011-05-02T12:00:00Z,28.8660,-88.0560,1.0,7.7,145.0,99.0,'11111222,11111222,11144222' 
ADCP,ioos:station:wmo:42374:1,2011-05-02T12:20:00Z,28.8660,-88.0560,1.0,9.8,139.0,99.0,'11111222,11111222,11144222' 
ADCP,ioos:station:wmo:42374:1,2011-05-02T12:40:00Z,28.8660,-88.0560,1.0,10.4,137.0,99.0,'11111222,11111222,11144222' 
ADCP,ioos:station:wmo:42374:1,2011-05-02T13:00:00Z,28.8660,-88.0560,1.0,11.3,137.0,99.0,'11111222,11111222,11144222' 
ADCP,ioos:station:wmo:42374:1,2011-05-02T13:20:00Z,28.8660,-88.0560,1.0,11.4,138.0,99.0,'11111222,11111222,11144222' 
ADCP,ioos:station:wmo:42374:1,2011-05-02T13:40:00Z,28.8660,-88.0560,1.0,11.2,137.0,99.0,'11111222,11111222,11144222' 
ADCP,ioos:station:wmo:42374:1,2011-05-02T14:00:00Z,28.8660,-88.0560,1.0,10.7,138.0,99.0,'11111222,11111222,11144222' 
ADCP,ioos:station:wmo:42374:1,2011-05-02T14:20:00Z,28.8660,-88.0560,1.0,11.5,140.0,99.0,'11111222,11111222,11144222' 
ADCP,ioos:station:wmo:42374:1,2011-05-02T14:40:00Z,28.8660,-88.0560,1.0,10.9,145.0,99.0,'11111222,11111222,11144222' 
ADCP,ioos:station:wmo:42374:1,2011-05-02T15:00:00Z,28.8660,-88.0560,1.0,10.2,146.0,99.0,'11111222,11111222,11144222' 
ADCP,ioos:station:wmo:42374:1,2011-05-02T15:20:00Z,28.8660,-88.0560,1.0,9.8,149.0,99.0,'11111222,11111222,11144222' 
ADCP,ioos:station:wmo:42374:1,2011-05-02T15:40:00Z,28.8660,-88.0560,1.0,9.2,148.0,99.0,'11111222,11111222,11144222' 
ADCP,ioos:station:wmo:42374:1,2011-05-02T16:00:00Z,28.8660,-88.0560,1.0,9.2,148.0,99.0,'11111222,11111222,11144222' 
ADCP,ioos:station:wmo:42374:1,2011-05-02T16:20:00Z,28.8660,-88.0560,1.0,8.6,147.0,99.0,'11111222,11111222,11144222' 
ADCP,ioos:station:wmo:42374:1,2011-05-02T16:40:00Z,28.8660,-88.0560,1.0,8.0,143.0,99.0,'11111222,11111222,11144222' 
ADCP,ioos:station:wmo:42374:1,2011-05-02T17:00:00Z,28.8660,-88.0560,1.0,8.2,142.0,99.0,'11111222,11111222,11144222' 
ADCP,ioos:station:wmo:42374:1,2011-05-02T17:20:00Z,28.8660,-88.0560,1.0,8.5,141.0,99.0,'11111222,11111222,11144222' 
ADCP,ioos:station:wmo:42374:1,2011-05-02T17:40:00Z,28.8660,-88.0560,1.0,8.1,141.0,99.0,'11111222,11111222,11144222' 
ADCP,ioos:station:wmo:42374:1,2011-05-02T18:00:00Z,28.8660,-88.0560,1.0,8.3,141.0,99.0,'11111222,11111222,11144222' 
ADCP,ioos:station:wmo:42374:1,2011-05-02T18:20:00Z,28.8660,-88.0560,1.0,8.2,140.0,99.0,'11111222,11111222,11144222' 
ADCP,ioos:station:wmo:42374:1,2011-05-02T18:40:00Z,28.8660,-88.0560,1.0,8.3,140.0,99.0,'11111222,11111222,11144222' 
ADCP,ioos:station:wmo:42374:1,2011-05-02T19:00:00Z,28.8660,-88.0560,1.0,8.5,137.0,99.0,'11111222,11111222,11144222' 
ADCP,ioos:station:wmo:42374:1,2011-05-02T19:20:00Z,28.8660,-88.0560,1.0,8.2,135.0,99.0,'11111222,11111222,11144222' 
ADCP,ioos:station:wmo:42374:1,2011-05-02T19:40:00Z,28.8660,-88.0560,1.0,8.3,134.0,99.0,'11111222,11111222,11144222' 
ADCP,ioos:station:wmo:42374:1,2011-05-02T20:00:00Z,28.8660,-88.0560,1.0,8.1,133.0,99.0,'11111222,11111222,11144222' 
ADCP,ioos:station:wmo:42374:1,2011-05-02T20:20:00Z,28.8660,-88.0560,1.0,8.0,133.0,99.0,'11111222,11111222,11144222' 
ADCP,ioos:station:wmo:42374:1,2011-05-02T20:40:00Z,28.8660,-88.0560,1.0,8.5,134.0,99.0,'11111222,11111222,11144222' 
ADCP,ioos:station:wmo:42374:1,2011-05-02T21:00:00Z,28.8660,-88.0560,1.0,8.5,136.0,99.0,'11111222,11111222,11144222' 
ADCP,ioos:station:wmo:42374:1,2011-05-02T21:20:00Z,28.8660,-88.0560,1.0,8.4,138.0,99.0,'11111222,11111222,11144222' 
ADCP,ioos:station:wmo:42374:1,2011-05-02T21:40:00Z,28.8660,-88.0560,1.0,8.6,138.0,99.0,'11111222,11111222,11144222' 
ADCP,ioos:station:wmo:42374:1,2011-05-02T22:00:00Z,28.8660,-88.0560,1.0,8.3,139.0,99.0,'11111222,11111222,11144222' 
ADCP,ioos:station:wmo:42374:1,2011-05-02T22:20:00Z,28.8660,-88.0560,1.0,8.6,138.0,99.0,'11111222,11111222,11144222' 
ADCP,ioos:station:wmo:42374:1,2011-05-02T23:00:00Z,28.8660,-88.0560,1.0,9.1,140.0,99.0,'11111222,11111222,11144222' 
ADCP,ioos:station:wmo:42374:1,2011-05-02T23:20:00Z,28.8660,-88.0560,1.0,8.9,135.0,99.0,'11111222,11111222,11144222' 
ADCP,ioos:station:wmo:42374:1,2011-05-02T23:40:00Z,28.8660,-88.0560,1.0,9.0,136.0,99.0,'11111222,11111222,11144222' 
ADCP,ioos:station:wmo:42374:1,2011-05-03T00:00:00Z,28.8660,-88.0560,1.0,9.6,139.0,99.0,'11111222,11111222,11144222' 
ADCP,ioos:station:wmo:42374:1,2011-05-03T00:20:00Z,28.8660,-88.0560,1.0,9.8,139.0,99.0,'11111222,11111222,11144222' 
ADCP,ioos:station:wmo:42374:1,2011-05-03T00:40:00Z,28.8660,-88.0560,1.0,9.4,142.0,99.0,'11111222,11111222,11144222' 
ADCP,ioos:station:wmo:42374:1,2011-05-03T01:00:00Z,28.8660,-88.0560,1.0,9.2,140.0,99.0,'11111222,11111222,11144222' 
ADCP,ioos:station:wmo:42374:1,2011-05-03T01:20:00Z,28.8660,-88.0560,1.0,9.3,140.0,99.0,'11111222,11111222,11144222' 
ADCP,ioos:station:wmo:42374:1,2011-05-03T01:40:00Z,28.8660,-88.0560,1.0,9.3,140.0,99.0,'11111222,11111222,11144222' 
ADCP,ioos:station:wmo:42374:1,2011-05-03T02:00:00Z,28.8660,-88.0560,1.0,9.2,140.0,99.0,'11111222,11111222,11144222' 
ADCP,ioos:station:wmo:42374:1,2011-05-03T02:20:00Z,28.8660,-88.0560,1.0,9.2,141.0,99.0,'11111222,11111222,11144222' 
ADCP,ioos:station:wmo:42374:1,2011-05-03T02:40:00Z,28.8660,-88.0560,1.0,9.0,142.0,99.0,'11111222,11111222,11144222' 
ADCP,ioos:station:wmo:42374:1,2011-05-03T03:00:00Z,28.8660,-88.0560,1.0,9.0,143.0,99.0,'11111222,11111222,11144222' 
ADCP,ioos:station:wmo:42374:1,2011-05-03T03:20:00Z,28.8660,-88.0560,1.0,8.9,142.0,99.0,'11111222,11111222,11144222' 
ADCP,ioos:station:wmo:42374:1,2011-05-03T04:00:00Z,28.8660,-88.0560,1.0,5.5,296.0,99.0,'11111222,11111222,11144222' 
ADCP,ioos:station:wmo:42374:1,2011-05-03T04:20:00Z,28.8660,-88.0560,1.0,8.2,290.0,99.0,'11111222,11111222,11144222' 
ADCP,ioos:station:wmo:42374:1,2011-05-03T04:40:00Z,28.8660,-88.0560,1.0,1.8,325.0,99.0,'11111222,11111222,11144222' 
ADCP,ioos:station:wmo:42374:1,2011-05-03T05:00:00Z,28.8660,-88.0560,1.0,6.4,311.0,99.0,'11111222,11111222,11144222' 
ADCP,ioos:station:wmo:42374:1,2011-05-03T05:20:00Z,28.8660,-88.0560,1.0,2.4,325.0,99.0,'11111222,11111222,11144222' 
ADCP,ioos:station:wmo:42374:1,2011-05-03T05:40:00Z,28.8660,-88.0560,1.0,6.2,297.0,99.0,'11111222,11111222,11144222' 
ADCP,ioos:station:wmo:42374:1,2011-05-03T06:00:00Z,28.8660,-88.0560,1.0,7.8,154.0,99.0,'11111222,11111222,11144222' 
ADCP,ioos:station:wmo:42374:1,2011-05-03T06:20:00Z,28.8660,-88.0560,1.0,7.7,153.0,99.0,'11111222,11111222,11144222' 
ADCP,ioos:station:wmo:42374:1,2011-05-03T06:40:00Z,28.8660,-88.0560,1.0,7.5,155.0,99.0,'11111222,11111222,11144222' 
ADCP,ioos:station:wmo:42374:1,2011-05-03T07:00:00Z,28.8660,-88.0560,1.0,7.4,153.0,99.0,'11111222,11111222,11144222' 
ADCP,ioos:station:wmo:42374:1,2011-05-03T07:20:00Z,28.8660,-88.0560,1.0,7.4,159.0,99.0,'11111222,11111222,11144222' 
ADCP,ioos:station:wmo:42374:1,2011-05-03T07:40:00Z,28.8660,-88.0560,1.0,7.2,164.0,99.0,'11111222,11111222,11144222' 
ADCP,ioos:station:wmo:42374:1,2011-05-03T08:00:00Z,28.8660,-88.0560,1.0,7.2,164.0,99.0,'11111222,11111222,11144222' 
ADCP,ioos:station:wmo:42374:1,2011-05-03T08:20:00Z,28.8660,-88.0560,1.0,7.3,166.0,99.0,'11111222,11111222,11144222' 
ADCP,ioos:station:wmo:42374:1,2011-05-03T08:40:00Z,28.8660,-88.0560,1.0,6.8,167.0,99.0,'11111222,11111222,11144222' 
ADCP,ioos:station:wmo:42374:1,2011-05-03T09:00:00Z,28.8660,-88.0560,1.0,6.4,170.0,99.0,'11111222,11111222,11144222' 
ADCP,ioos:station:wmo:42374:1,2011-05-03T09:20:00Z,28.8660,-88.0560,1.0,6.2,165.0,99.0,'11111222,11111222,11144222' 
ADCP,ioos:station:wmo:42374:1,2011-05-03T09:40:00Z,28.8660,-88.0560,1.0,6.7,160.0,99.0,'11111222,11111222,11144222' 
ADCP,ioos:station:wmo:42374:1,2011-05-03T10:00:00Z,28.8660,-88.0560,1.0,5.8,160.0,99.0,'11111222,11111222,11144222' 
ADCP,ioos:station:wmo:42374:1,2011-05-03T10:20:00Z,28.8660,-88.0560,1.0,5.8,157.0,99.0,'11111222,11111222,11144222' 
ADCP,ioos:station:wmo:42374:1,2011-05-03T10:40:00Z,28.8660,-88.0560,1.0,6.0,158.0,99.0,'11111222,11111222,11144222' 
ADCP,ioos:station:wmo:42374:1,2011-05-03T11:00:00Z,28.8660,-88.0560,1.0,6.2,159.0,99.0,'11111222,11111222,11144222' 
ADCP,ioos:station:wmo:42374:1,2011-05-03T11:20:00Z,28.8660,-88.0560,1.0,6.2,159.0,99.0,'11111222,11111222,11144222' 
ADCP,ioos:station:wmo:42374:1,2011-05-03T11:40:00Z,28.8660,-88.0560,1.0,7.4,157.0,99.0,'11111222,11111222,11144222' 
ADCP,ioos:station:wmo:42374:1,2011-05-03T12:00:00Z,28.8660,-88.0560,1.0,9.1,158.0,99.0,'11111222,11111222,11144222' 
ADCP,ioos:station:wmo:42374:1,2011-05-03T12:20:00Z,28.8660,-88.0560,1.0,8.6,162.0,99.0,'11111222,11111222,11144222' 
ADCP,ioos:station:wmo:42374:1,2011-05-03T12:40:00Z,28.8660,-88.0560,1.0,8.0,166.0,99.0,'11111222,11111222,11144222' 
ADCP,ioos:station:wmo:42374:1,2011-05-03T13:00:00Z,28.8660,-88.0560,1.0,8.2,166.0,99.0,'11111222,11111222,11144222' 
ADCP,ioos:station:wmo:42374:1,2011-05-03T13:20:00Z,28.8660,-88.0560,1.0,8.0,167.0,99.0,'11111222,11111222,11144222' 
ADCP,ioos:station:wmo:42374:1,2011-05-03T13:40:00Z,28.8660,-88.0560,1.0,7.8,168.0,99.0,'11111222,11111222,11144222' 
ADCP,ioos:station:wmo:42374:1,2011-05-03T14:00:00Z,28.8660,-88.0560,1.0,6.9,171.0,99.0,'11111222,11111222,11144222' 
ADCP,ioos:station:wmo:42374:1,2011-05-03T14:20:00Z,28.8660,-88.0560,1.0,6.3,175.0,99.0,'11111222,11111222,11144222' 
ADCP,ioos:station:wmo:42374:1,2011-05-03T14:40:00Z,28.8660,-88.0560,1.0,6.7,176.0,99.0,'11111222,11111222,11144222' 
ADCP,ioos:station:wmo:42374:1,2011-05-03T15:00:00Z,28.8660,-88.0560,1.0,6.3,178.0,99.0,'11111222,11111222,11144222' 
ADCP,ioos:station:wmo:42374:1,2011-05-03T15:20:00Z,28.8660,-88.0560,1.0,6.3,178.0,99.0,'11111222,11111222,11144222' 
ADCP,ioos:station:wmo:42374:1,2011-05-03T16:00:00Z,28.8660,-88.0560,1.0,6.0,178.0,99.0,'11111222,11111222,11144222' 
ADCP,ioos:station:wmo:42374:1,2011-05-03T16:20:00Z,28.8660,-88.0560,1.0,6.0,178.0,99.0,'11111222,11111222,11144222' 
ADCP,ioos:station:wmo:42374:1,2011-05-03T16:40:00Z,28.8660,-88.0560,1.0,6.4,173.0,99.0,'11111222,11111222,11144222' 
ADCP,ioos:station:wmo:42374:1,2011-05-03T17:00:00Z,28.8660,-88.0560,1.0,5.9,177.0,99.0,'11111222,11111222,11144222' 
ADCP,ioos:station:wmo:42374:1,2011-05-03T17:20:00Z,28.8660,-88.0560,1.0,5.9,177.0,99.0,'11111222,11111222,11144222' 
ADCP,ioos:station:wmo:42374:1,2011-05-03T17:40:00Z,28.8660,-88.0560,1.0,5.5,174.0,99.0,'11111222,11111222,11144222' 
ADCP,ioos:station:wmo:42374:1,2011-05-03T18:00:00Z,28.8660,-88.0560,1.0,5.1,183.0,99.0,'11111222,11111222,11144222' 
ADCP,ioos:station:wmo:42374:1,2011-05-03T18:20:00Z,28.8660,-88.0560,1.0,5.0,188.0,99.0,'11111222,11111222,11144222' 
ADCP,ioos:station:wmo:42374:1,2011-05-03T18:40:00Z,28.8660,-88.0560,1.0,5.0,190.0,99.0,'11111222,11111222,11144222' 
ADCP,ioos:station:wmo:42374:1,2011-05-03T19:00:00Z,28.8660,-88.0560,1.0,4.7,200.0,99.0,'11111222,11111222,11144222' 
ADCP,ioos:station:wmo:42374:1,2011-05-03T19:20:00Z,28.8660,-88.0560,1.0,4.6,198.0,99.0,'11111222,11111222,11144222' 
ADCP,ioos:station:wmo:42374:1,2011-05-03T19:40:00Z,28.8660,-88.0560,1.0,4.4,208.0,99.0,'11111222,11111222,11144222' 
ADCP,ioos:station:wmo:42374:1,2011-05-03T20:00:00Z,28.8660,-88.0560,1.0,4.2,226.0,99.0,'11111222,11111222,11144222' 
ADCP,ioos:station:wmo:42374:1,2011-05-03T20:20:00Z,28.8660,-88.0560,1.0,4.8,236.0,99.0,'11111222,11111222,11144222' 
ADCP,ioos:station:wmo:42374:1,2011-05-03T20:40:00Z,28.8660,-88.0560,1.0,5.6,244.0,99.0,'11111222,11111222,11144222' 